GFSSE_prec_pwat_132.txt.gz
Precipitable_Water
0.87 1.05 1.16 1.25 1.19 1.16 1.17 1.19 1.21 1.19 1.22 1.26 1.28 1.28 1.26 1.25 1.24 1.20 1.13 1.16 1.19 1.23 1.29 1.29 1.33 1.36 1.40 1.45 1.48 1.50 1.55 1.61 1.62 1.66 1.71 1.72 1.78 1.75 1.72 1.77 1.78 1.74 1.75
0.98 1.10 1.15 1.22 1.19 1.16 1.19 1.18 1.22 1.23 1.24 1.24 1.24 1.25 1.27 1.25 1.23 1.15 1.13 1.17 1.19 1.22 1.24 1.26 1.29 1.34 1.39 1.43 1.46 1.52 1.57 1.60 1.64 1.65 1.66 1.65 1.63 1.60 1.60 1.79 1.77 1.65 1.64
1.05 1.10 1.16 1.24 1.19 1.16 1.18 1.18 1.20 1.23 1.24 1.24 1.24 1.24 1.25 1.23 1.22 1.12 1.15 1.17 1.17 1.19 1.23 1.25 1.28 1.32 1.34 1.36 1.39 1.41 1.42 1.43 1.46 1.44 1.45 1.58 1.55 1.53 1.68 1.62 1.52 1.60 1.63
1.13 1.15 1.18 1.26 1.18 1.16 1.16 1.17 1.20 1.22 1.25 1.23 1.23 1.23 1.23 1.21 1.17 1.14 1.15 1.18 1.19 1.21 1.20 1.22 1.26 1.25 1.25 1.25 1.26 1.29 1.33 1.34 1.34 1.36 1.54 1.54 1.49 1.50 1.47 1.46 1.50 1.56 1.58
1.17 1.21 1.24 1.25 1.17 1.12 1.12 1.14 1.19 1.22 1.22 1.24 1.23 1.23 1.21 1.20 1.14 1.15 1.15 1.19 1.21 1.23 1.24 1.25 1.23 1.20 1.20 1.22 1.27 1.33 1.34 1.36 1.37 1.47 1.50 1.51 1.50 1.45 1.46 1.47 1.54 1.56 1.59
1.15 1.20 1.27 1.23 1.16 1.12 1.10 1.13 1.17 1.19 1.21 1.23 1.21 1.24 1.23 1.20 1.16 1.15 1.18 1.19 1.22 1.25 1.25 1.24 1.20 1.18 1.20 1.27 1.31 1.35 1.34 1.33 1.35 1.41 1.42 1.43 1.50 1.46 1.49 1.50 1.53 1.55 1.59
1.15 1.23 1.28 1.21 1.14 1.11 1.09 1.12 1.16 1.17 1.20 1.23 1.23 1.23 1.22 1.21 1.20 1.17 1.20 1.20 1.23 1.24 1.24 1.20 1.15 1.20 1.27 1.31 1.30 1.28 1.29 1.28 1.35 1.33 1.37 1.41 1.53 1.47 1.49 1.50 1.52 1.52 1.52
1.24 1.29 1.29 1.21 1.16 1.11 1.10 1.10 1.12 1.13 1.18 1.23 1.25 1.22 1.19 1.22 1.21 1.21 1.23 1.23 1.24 1.24 1.20 1.15 1.17 1.25 1.27 1.25 1.28 1.26 1.27 1.26 1.31 1.34 1.38 1.45 1.53 1.55 1.55 1.53 1.49 1.47 1.49
1.34 1.32 1.30 1.24 1.22 1.16 1.11 1.11 1.09 1.11 1.14 1.20 1.24 1.23 1.19 1.21 1.20 1.25 1.27 1.27 1.25 1.22 1.15 1.15 1.20 1.24 1.24 1.29 1.26 1.24 1.21 1.27 1.36 1.39 1.38 1.43 1.44 1.56 1.60 1.57 1.51 1.47 1.47
1.35 1.27 1.26 1.27 1.25 1.22 1.19 1.14 1.10 1.10 1.12 1.15 1.21 1.24 1.24 1.23 1.22 1.28 1.31 1.29 1.25 1.18 1.16 1.19 1.22 1.26 1.27 1.30 1.28 1.25 1.20 1.26 1.39 1.39 1.39 1.47 1.39 1.55 1.63 1.58 1.50 1.49 1.52
1.35 1.28 1.28 1.27 1.25 1.24 1.24 1.18 1.13 1.11 1.14 1.16 1.22 1.26 1.28 1.30 1.31 1.35 1.35 1.30 1.23 1.19 1.20 1.21 1.23 1.26 1.27 1.29 1.26 1.23 1.20 1.30 1.35 1.35 1.38 1.31 1.25 1.30 1.47 1.50 1.51 1.54 1.50
1.25 1.31 1.26 1.26 1.21 1.23 1.21 1.20 1.16 1.17 1.19 1.21 1.22 1.28 1.29 1.33 1.37 1.40 1.41 1.33 1.27 1.21 1.21 1.22 1.23 1.24 1.26 1.29 1.27 1.26 1.21 1.28 1.32 1.31 1.34 1.24 1.24 1.30 1.38 1.44 1.46 1.51 1.55
1.22 1.34 1.27 1.25 1.22 1.20 1.16 1.17 1.18 1.18 1.19 1.23 1.23 1.24 1.28 1.36 1.39 1.39 1.40 1.35 1.32 1.25 1.21 1.20 1.21 1.22 1.23 1.27 1.26 1.24 1.25 1.25 1.26 1.31 1.32 1.24 1.23 1.29 1.38 1.38 1.45 1.46 1.45
0.98 1.29 1.31 1.20 1.18 1.17 1.16 1.12 1.15 1.16 1.18 1.19 1.23 1.25 1.24 1.28 1.32 1.31 1.33 1.30 1.29 1.25 1.22 1.20 1.19 1.21 1.24 1.24 1.22 1.24 1.25 1.24 1.24 1.25 1.30 1.23 1.21 1.22 1.31 1.39 1.48 1.40 1.49
0.72 1.14 1.29 1.23 1.14 1.14 1.13 1.13 1.12 1.14 1.16 1.17 1.21 1.25 1.25 1.23 1.23 1.27 1.29 1.33 1.30 1.28 1.26 1.23 1.23 1.23 1.22 1.18 1.15 1.18 1.22 1.23 1.24 1.20 1.21 1.21 1.19 1.20 1.23 1.36 1.56 1.54 1.51
0.64 0.96 1.23 1.32 1.16 1.14 1.09 1.12 1.12 1.16 1.15 1.18 1.18 1.20 1.22 1.22 1.22 1.24 1.26 1.27 1.29 1.28 1.29 1.26 1.25 1.24 1.23 1.21 1.12 1.12 1.15 1.20 1.24 1.22 1.20 1.20 1.18 1.18 1.18 1.26 1.46 1.63 1.60
0.56 0.89 1.05 1.30 1.22 1.10 1.04 1.10 1.12 1.14 1.15 1.12 1.14 1.18 1.19 1.22 1.20 1.19 1.19 1.21 1.25 1.29 1.28 1.28 1.27 1.27 1.22 1.23 1.17 1.13 1.12 1.13 1.14 1.17 1.16 1.15 1.19 1.15 1.14 1.19 1.28 1.45 1.58
0.47 0.57 0.99 1.19 1.26 1.10 1.03 1.08 1.13 1.13 1.14 1.13 1.13 1.15 1.16 1.18 1.20 1.16 1.13 1.13 1.22 1.26 1.26 1.23 1.23 1.19 1.19 1.19 1.17 1.16 1.13 1.13 1.12 1.12 1.13 1.10 1.12 1.18 1.18 1.16 1.22 1.28 1.33
0.31 0.49 0.71 1.11 1.19 1.17 1.06 1.05 1.14 1.14 1.11 1.10 1.14 1.11 1.13 1.12 1.16 1.12 1.10 1.11 1.20 1.19 1.20 1.19 1.18 1.17 1.14 1.15 1.16 1.19 1.18 1.13 1.11 1.15 1.14 1.09 1.10 1.12 1.16 1.19 1.17 1.21 1.24
0.21 0.36 0.55 0.97 1.18 1.19 1.12 1.06 1.10 1.14 1.12 1.12 1.08 1.09 1.12 1.13 1.13 1.11 1.11 1.10 1.15 1.14 1.15 1.17 1.15 1.21 1.18 1.16 1.15 1.17 1.19 1.16 1.14 1.12 1.18 1.17 1.11 1.10 1.14 1.14 1.20 1.18 1.19
0.24 0.25 0.43 0.68 1.14 1.22 1.13 1.01 0.96 0.97 1.01 1.05 1.07 1.07 1.08 1.09 1.14 1.12 1.11 1.09 1.14 1.10 1.11 1.14 1.15 1.12 1.14 1.23 1.16 1.14 1.16 1.20 1.18 1.17 1.21 1.23 1.15 1.13 1.14 1.13 1.11 1.21 1.24
0.26 0.24 0.32 0.55 1.08 1.18 1.23 1.09 0.98 0.98 1.00 1.00 1.05 1.04 1.06 1.06 1.09 1.12 1.11 1.15 1.14 1.16 1.20 1.17 1.15 1.10 1.15 1.23 1.05 1.06 0.90 1.01 1.13 1.17 1.17 1.15 1.16 1.18 1.13 1.13 1.12 1.15 1.20
0.29 0.26 0.25 0.45 0.94 1.16 1.21 1.25 1.09 1.07 1.08 1.00 1.02 1.03 1.11 1.12 1.10 1.13 1.18 1.22 1.25 1.25 1.21 1.23 1.24 1.21 1.09 1.20 1.25 1.05 0.90 0.80 0.96 1.11 1.10 1.14 1.15 1.14 1.16 1.15 1.12 1.15 1.21
0.26 0.29 0.26 0.38 0.83 1.17 1.23 1.28 1.05 0.93 0.91 0.92 0.99 1.11 1.14 1.18 1.19 1.24 1.26 1.29 1.29 1.31 1.28 1.34 1.42 1.37 1.32 1.16 1.29 1.25 1.19 1.10 0.90 0.84 1.04 1.07 1.13 1.11 1.12 1.16 1.10 1.11 1.15
0.29 0.29 0.29 0.35 0.72 1.16 1.28 1.30 1.21 1.00 1.04 1.06 1.16 1.27 1.33 1.38 1.41 1.41 1.36 1.33 1.33 1.43 1.45 1.56 1.53 1.49 1.45 1.41 1.36 1.26 1.21 1.14 1.10 0.98 0.86 0.95 1.08 1.11 1.15 1.22 1.19 1.06 1.11
0.53 0.54 0.51 0.46 0.72 1.12 1.32 1.32 1.34 1.20 1.22 1.22 1.29 1.34 1.42 1.47 1.49 1.52 1.51 1.43 1.44 1.46 1.41 1.36 1.39 1.44 1.43 1.44 1.52 1.46 1.29 1.16 1.05 1.01 0.94 0.96 0.97 1.08 1.12 1.17 1.21 1.08 1.07

GFSSE_prec_pwat_135.txt.gz
Precipitable_Water
1.03 1.15 1.08 1.15 1.17 1.16 1.14 1.17 1.15 1.17 1.21 1.24 1.24 1.25 1.23 1.19 1.18 1.17 1.16 1.21 1.23 1.24 1.29 1.32 1.33 1.37 1.39 1.42 1.44 1.45 1.49 1.54 1.58 1.58 1.59 1.66 1.63 1.62 1.67 1.74 1.82 1.78 1.80
1.14 1.25 1.13 1.15 1.21 1.16 1.15 1.17 1.16 1.18 1.22 1.25 1.27 1.26 1.23 1.22 1.20 1.18 1.15 1.20 1.19 1.24 1.28 1.30 1.33 1.37 1.39 1.40 1.43 1.47 1.54 1.57 1.61 1.61 1.59 1.57 1.58 1.58 1.57 1.63 1.72 1.63 1.70
1.11 1.26 1.15 1.16 1.22 1.17 1.17 1.18 1.17 1.18 1.26 1.28 1.27 1.26 1.23 1.24 1.20 1.15 1.17 1.18 1.23 1.23 1.25 1.28 1.30 1.32 1.35 1.36 1.39 1.42 1.44 1.46 1.48 1.46 1.46 1.49 1.45 1.40 1.52 1.62 1.55 1.54 1.69
1.19 1.32 1.17 1.15 1.21 1.17 1.16 1.16 1.17 1.19 1.27 1.29 1.27 1.25 1.25 1.24 1.18 1.14 1.19 1.20 1.23 1.23 1.22 1.27 1.30 1.29 1.27 1.27 1.28 1.28 1.29 1.31 1.29 1.32 1.53 1.69 1.52 1.52 1.50 1.43 1.44 1.56 1.62
1.25 1.35 1.22 1.14 1.20 1.17 1.17 1.15 1.16 1.18 1.27 1.29 1.27 1.26 1.26 1.25 1.17 1.15 1.19 1.22 1.25 1.24 1.26 1.30 1.28 1.25 1.22 1.22 1.24 1.28 1.29 1.27 1.30 1.47 1.75 1.52 1.54 1.46 1.45 1.45 1.49 1.53 1.60
1.31 1.41 1.30 1.17 1.19 1.17 1.16 1.14 1.13 1.17 1.23 1.28 1.26 1.29 1.26 1.24 1.17 1.14 1.18 1.21 1.25 1.25 1.26 1.26 1.23 1.19 1.19 1.22 1.26 1.30 1.27 1.22 1.35 1.55 1.90 1.49 1.54 1.46 1.49 1.51 1.51 1.56 1.61
1.35 1.43 1.37 1.25 1.21 1.17 1.15 1.14 1.13 1.16 1.20 1.23 1.25 1.26 1.28 1.24 1.17 1.13 1.16 1.21 1.26 1.26 1.24 1.21 1.15 1.16 1.22 1.28 1.28 1.25 1.22 1.22 1.37 1.39 1.31 1.40 1.55 1.46 1.50 1.50 1.53 1.53 1.52
1.38 1.44 1.44 1.31 1.25 1.19 1.15 1.15 1.14 1.15 1.19 1.22 1.24 1.23 1.26 1.24 1.19 1.13 1.16 1.21 1.26 1.27 1.22 1.16 1.11 1.19 1.25 1.23 1.23 1.24 1.20 1.20 1.30 1.32 1.43 1.59 1.48 1.47 1.54 1.53 1.52 1.50 1.50
1.44 1.44 1.43 1.36 1.28 1.20 1.17 1.17 1.15 1.15 1.16 1.19 1.23 1.25 1.23 1.22 1.21 1.18 1.22 1.23 1.24 1.26 1.19 1.12 1.15 1.21 1.22 1.22 1.23 1.21 1.16 1.22 1.37 1.38 1.47 1.55 1.36 1.45 1.56 1.57 1.52 1.49 1.45
1.39 1.42 1.46 1.40 1.33 1.24 1.22 1.20 1.18 1.17 1.15 1.17 1.24 1.26 1.24 1.23 1.24 1.24 1.29 1.29 1.28 1.28 1.17 1.15 1.19 1.22 1.24 1.25 1.23 1.20 1.15 1.19 1.40 1.37 1.48 1.43 1.38 1.40 1.52 1.58 1.50 1.48 1.47
1.32 1.47 1.48 1.41 1.37 1.34 1.30 1.25 1.20 1.18 1.19 1.19 1.24 1.28 1.27 1.28 1.28 1.30 1.31 1.34 1.32 1.26 1.19 1.20 1.22 1.22 1.24 1.27 1.25 1.20 1.13 1.24 1.35 1.36 1.46 1.43 1.25 1.30 1.37 1.47 1.47 1.43 1.47
1.03 1.37 1.50 1.44 1.39 1.38 1.34 1.31 1.22 1.19 1.20 1.23 1.25 1.29 1.30 1.30 1.31 1.32 1.34 1.38 1.30 1.25 1.22 1.23 1.23 1.22 1.23 1.27 1.26 1.23 1.17 1.38 1.25 1.36 1.40 1.35 1.19 1.25 1.33 1.41 1.47 1.46 1.45
0.69 1.21 1.46 1.49 1.45 1.39 1.34 1.33 1.25 1.21 1.19 1.23 1.25 1.28 1.29 1.31 1.37 1.35 1.46 1.41 1.32 1.25 1.22 1.23 1.22 1.21 1.19 1.32 1.31 1.24 1.24 1.34 1.27 1.28 1.41 1.27 1.21 1.21 1.26 1.35 1.44 1.50 1.51
0.46 0.82 1.44 1.55 1.49 1.43 1.37 1.31 1.27 1.19 1.19 1.21 1.26 1.31 1.26 1.31 1.37 1.40 1.41 1.43 1.30 1.24 1.19 1.20 1.20 1.20 1.23 1.31 1.37 1.31 1.28 1.26 1.31 1.30 1.29 1.28 1.20 1.19 1.20 1.25 1.35 1.44 1.45
0.46 0.53 1.08 1.51 1.54 1.45 1.38 1.32 1.25 1.19 1.21 1.23 1.27 1.31 1.32 1.29 1.32 1.39 1.38 1.39 1.30 1.31 1.23 1.19 1.19 1.17 1.23 1.25 1.22 1.22 1.28 1.25 1.29 1.25 1.33 1.21 1.16 1.17 1.18 1.20 1.30 1.40 1.40
0.43 0.52 0.72 1.31 1.52 1.54 1.38 1.32 1.26 1.23 1.27 1.28 1.30 1.29 1.32 1.30 1.31 1.38 1.35 1.33 1.31 1.30 1.28 1.25 1.18 1.23 1.20 1.24 1.19 1.17 1.20 1.21 1.29 1.25 1.23 1.26 1.17 1.13 1.16 1.19 1.23 1.37 1.49
0.28 0.48 0.62 1.12 1.43 1.50 1.47 1.31 1.27 1.23 1.23 1.25 1.29 1.33 1.33 1.37 1.36 1.33 1.33 1.27 1.30 1.33 1.31 1.30 1.26 1.29 1.23 1.22 1.22 1.20 1.19 1.13 1.14 1.18 1.19 1.19 1.19 1.14 1.09 1.13 1.17 1.24 1.43
0.26 0.27 0.47 0.77 1.20 1.41 1.53 1.41 1.24 1.22 1.18 1.28 1.27 1.33 1.33 1.37 1.38 1.34 1.32 1.33 1.36 1.29 1.26 1.23 1.21 1.17 1.16 1.16 1.16 1.20 1.20 1.17 1.17 1.13 1.16 1.16 1.15 1.15 1.15 1.10 1.11 1.16 1.25
0.30 0.26 0.28 0.48 0.83 1.27 1.46 1.55 1.29 1.23 1.18 1.19 1.24 1.28 1.28 1.30 1.35 1.29 1.29 1.27 1.35 1.30 1.24 1.21 1.18 1.15 1.14 1.13 1.13 1.16 1.19 1.16 1.20 1.25 1.19 1.18 1.17 1.10 1.15 1.11 1.15 1.10 1.15
0.31 0.32 0.28 0.31 0.53 1.14 1.36 1.50 1.42 1.26 1.22 1.19 1.17 1.18 1.28 1.26 1.28 1.29 1.24 1.27 1.29 1.30 1.23 1.21 1.16 1.20 1.17 1.16 1.15 1.15 1.19 1.23 1.20 1.16 1.11 1.19 1.25 1.17 1.16 1.19 1.14 1.13 1.12
0.35 0.33 0.32 0.30 0.36 0.73 1.23 1.31 1.39 1.17 1.15 1.09 1.12 1.13 1.21 1.19 1.26 1.25 1.25 1.24 1.19 1.24 1.22 1.19 1.18 1.15 1.14 1.23 1.16 1.13 1.18 1.25 1.23 1.20 1.18 1.14 1.18 1.25 1.26 1.18 1.20 1.21 1.15
0.55 0.40 0.37 0.33 0.33 0.47 1.16 1.30 1.36 1.35 1.16 1.08 1.07 1.18 1.16 1.21 1.20 1.26 1.21 1.21 1.15 1.17 1.22 1.28 1.19 1.14 1.17 1.23 1.06 1.07 0.92 1.03 1.14 1.18 1.20 1.18 1.17 1.21 1.17 1.23 1.24 1.23 1.20
0.63 0.56 0.42 0.36 0.34 0.36 0.62 1.33 1.35 1.44 1.30 1.10 1.01 1.12 1.15 1.18 1.17 1.18 1.20 1.22 1.20 1.16 1.17 1.27 1.25 1.21 1.11 1.19 1.23 1.04 0.90 0.82 0.96 1.19 1.18 1.21 1.20 1.17 1.18 1.17 1.18 1.20 1.18
0.63 0.64 0.56 0.41 0.36 0.37 0.50 1.20 1.25 1.27 1.11 1.04 0.97 0.98 1.07 1.11 1.09 1.10 1.17 1.22 1.21 1.26 1.23 1.34 1.31 1.31 1.27 1.11 1.25 1.28 1.20 1.16 0.97 0.94 1.20 1.17 1.20 1.17 1.19 1.14 1.19 1.20 1.20
0.64 0.70 0.69 0.49 0.39 0.37 0.41 0.86 1.28 1.27 1.32 1.15 1.03 0.95 1.02 1.14 1.14 1.11 1.12 1.16 1.21 1.33 1.31 1.29 1.34 1.40 1.43 1.37 1.39 1.32 1.34 1.27 1.27 1.10 0.94 1.04 1.18 1.18 1.20 1.18 1.21 1.21 1.24
0.65 0.63 0.66 0.66 0.43 0.38 0.36 0.70 1.31 1.19 1.37 1.19 1.07 0.98 1.02 1.13 1.15 1.18 1.19 1.18 1.28 1.30 1.28 1.25 1.27 1.39 1.42 1.41 1.41 1.38 1.38 1.29 1.24 1.20 1.09 1.06 1.06 1.13 1.17 1.21 1.23 1.23 1.23

GFSSE_prec_pwat_138.txt.gz
Precipitable_Water
1.31 1.11 0.99 1.07 1.09 1.11 1.12 1.12 1.08 1.11 1.14 1.18 1.21 1.18 1.15 1.09 1.08 1.05 1.10 1.18 1.24 1.26 1.29 1.29 1.30 1.34 1.39 1.43 1.44 1.45 1.46 1.49 1.52 1.55 1.58 1.58 1.58 1.64 1.59 1.65 1.76 1.73 1.73
1.42 1.21 0.99 1.04 1.13 1.15 1.16 1.14 1.11 1.11 1.15 1.18 1.22 1.20 1.15 1.13 1.09 1.07 1.16 1.21 1.26 1.28 1.31 1.30 1.33 1.37 1.39 1.41 1.41 1.46 1.49 1.53 1.52 1.52 1.49 1.48 1.52 1.51 1.46 1.55 1.57 1.58 1.69
1.34 1.22 1.15 1.04 1.13 1.16 1.15 1.16 1.14 1.13 1.16 1.19 1.20 1.21 1.15 1.15 1.12 1.08 1.16 1.22 1.24 1.27 1.28 1.29 1.32 1.33 1.35 1.35 1.37 1.39 1.39 1.42 1.43 1.41 1.46 1.42 1.44 1.49 1.49 1.53 1.46 1.46 1.59
1.32 1.28 1.25 1.12 1.14 1.19 1.16 1.18 1.16 1.13 1.16 1.19 1.22 1.18 1.17 1.17 1.12 1.09 1.17 1.19 1.25 1.24 1.24 1.26 1.28 1.30 1.26 1.26 1.26 1.23 1.23 1.28 1.34 1.42 1.58 1.58 1.54 1.53 1.54 1.41 1.38 1.51 1.57
1.29 1.35 1.32 1.18 1.16 1.19 1.16 1.18 1.16 1.13 1.14 1.18 1.21 1.18 1.17 1.19 1.14 1.11 1.16 1.20 1.25 1.25 1.27 1.31 1.28 1.23 1.22 1.21 1.19 1.21 1.24 1.29 1.40 1.51 1.60 1.69 1.47 1.47 1.43 1.41 1.46 1.51 1.56
1.37 1.38 1.36 1.22 1.20 1.20 1.17 1.18 1.16 1.12 1.15 1.16 1.20 1.20 1.18 1.19 1.15 1.13 1.16 1.21 1.23 1.25 1.29 1.29 1.22 1.18 1.17 1.19 1.20 1.20 1.20 1.30 1.50 1.59 1.32 1.56 1.50 1.50 1.45 1.48 1.47 1.52 1.60
1.41 1.44 1.41 1.27 1.22 1.23 1.18 1.18 1.15 1.14 1.17 1.17 1.17 1.23 1.20 1.20 1.15 1.11 1.17 1.23 1.24 1.26 1.26 1.23 1.16 1.14 1.18 1.23 1.22 1.15 1.13 1.31 1.44 1.56 1.86 1.43 1.50 1.46 1.48 1.50 1.52 1.54 1.56
1.44 1.51 1.51 1.35 1.23 1.26 1.25 1.23 1.18 1.16 1.17 1.18 1.17 1.22 1.23 1.21 1.15 1.12 1.15 1.21 1.27 1.28 1.26 1.19 1.13 1.15 1.21 1.20 1.16 1.14 1.09 1.25 1.35 1.40 1.38 1.71 1.44 1.38 1.50 1.53 1.55 1.54 1.54
1.45 1.55 1.56 1.43 1.28 1.28 1.26 1.23 1.21 1.19 1.19 1.19 1.19 1.21 1.23 1.25 1.18 1.17 1.17 1.22 1.26 1.29 1.25 1.15 1.13 1.18 1.19 1.18 1.18 1.13 1.07 1.22 1.29 1.43 1.40 1.54 1.32 1.32 1.44 1.49 1.52 1.52 1.51
1.27 1.48 1.48 1.38 1.32 1.30 1.30 1.27 1.24 1.22 1.22 1.21 1.20 1.21 1.24 1.26 1.24 1.22 1.20 1.24 1.25 1.26 1.23 1.14 1.15 1.18 1.18 1.17 1.17 1.14 1.08 1.20 1.32 1.34 1.38 1.44 1.34 1.31 1.38 1.44 1.49 1.49 1.47
1.19 1.36 1.50 1.36 1.34 1.33 1.31 1.29 1.28 1.25 1.23 1.23 1.25 1.25 1.28 1.26 1.24 1.26 1.23 1.25 1.27 1.26 1.20 1.15 1.17 1.18 1.17 1.16 1.16 1.13 1.05 1.20 1.31 1.39 1.40 1.39 1.30 1.25 1.35 1.39 1.43 1.44 1.44
0.63 1.14 1.41 1.53 1.43 1.38 1.36 1.33 1.29 1.29 1.26 1.24 1.27 1.30 1.30 1.27 1.23 1.26 1.26 1.31 1.27 1.24 1.17 1.16 1.17 1.16 1.14 1.14 1.16 1.13 1.11 1.24 1.45 1.29 1.37 1.35 1.27 1.18 1.23 1.32 1.34 1.41 1.46
0.41 0.52 1.26 1.50 1.60 1.50 1.38 1.39 1.33 1.27 1.26 1.24 1.25 1.29 1.29 1.24 1.27 1.26 1.28 1.31 1.29 1.22 1.16 1.17 1.17 1.14 1.09 1.18 1.20 1.13 1.11 1.25 1.38 1.18 1.31 1.30 1.24 1.19 1.18 1.21 1.26 1.34 1.44
0.39 0.45 0.70 1.41 1.55 1.64 1.57 1.45 1.37 1.27 1.24 1.19 1.22 1.26 1.24 1.20 1.26 1.26 1.34 1.37 1.34 1.25 1.15 1.15 1.15 1.13 1.12 1.19 1.22 1.32 1.19 1.26 1.37 1.51 1.31 1.19 1.25 1.17 1.18 1.18 1.19 1.24 1.34
0.29 0.43 0.53 0.86 1.49 1.63 1.66 1.56 1.46 1.34 1.26 1.23 1.19 1.23 1.26 1.22 1.21 1.33 1.41 1.42 1.38 1.27 1.16 1.14 1.13 1.13 1.14 1.17 1.27 1.18 1.15 1.19 1.26 1.44 1.29 1.36 1.19 1.13 1.16 1.17 1.16 1.20 1.28
0.30 0.29 0.45 0.59 1.30 1.50 1.62 1.63 1.57 1.44 1.38 1.29 1.21 1.20 1.27 1.30 1.26 1.32 1.37 1.39 1.40 1.30 1.23 1.18 1.12 1.14 1.11 1.17 1.17 1.21 1.14 1.09 1.17 1.23 1.23 1.20 1.22 1.15 1.10 1.13 1.14 1.16 1.23
0.33 0.32 0.29 0.44 0.64 1.50 1.44 1.50 1.67 1.53 1.44 1.33 1.29 1.28 1.24 1.31 1.33 1.35 1.34 1.38 1.38 1.28 1.25 1.23 1.18 1.27 1.24 1.19 1.19 1.19 1.09 1.20 1.15 1.17 1.19 1.22 1.18 1.11 1.12 1.08 1.09 1.14 1.19
0.41 0.31 0.32 0.32 0.45 1.00 1.41 1.44 1.55 1.66 1.49 1.42 1.35 1.36 1.34 1.26 1.31 1.36 1.33 1.37 1.41 1.35 1.24 1.24 1.15 1.12 1.17 1.17 1.20 1.22 1.17 1.15 1.17 1.14 1.19 1.18 1.21 1.16 1.15 1.09 1.08 1.10 1.11
0.53 0.54 0.35 0.36 0.36 0.46 0.95 1.41 1.35 1.65 1.62 1.40 1.37 1.35 1.39 1.38 1.28 1.33 1.37 1.35 1.40 1.38 1.30 1.26 1.17 1.24 1.12 1.15 1.17 1.26 1.24 1.20 1.18 1.14 1.16 1.19 1.22 1.21 1.18 1.13 1.10 1.07 1.12
0.53 0.58 0.60 0.41 0.37 0.43 0.48 1.11 1.39 1.32 1.62 1.59 1.45 1.31 1.38 1.37 1.33 1.30 1.38 1.33 1.36 1.35 1.35 1.25 1.21 1.26 1.18 1.09 1.08 1.13 1.17 1.20 1.22 1.27 1.20 1.17 1.21 1.24 1.31 1.20 1.21 1.19 1.15
0.50 0.53 0.57 0.58 0.53 0.37 0.43 0.59 1.12 1.29 1.35 1.57 1.53 1.38 1.36 1.37 1.36 1.30 1.32 1.32 1.31 1.24 1.29 1.27 1.17 1.16 1.19 1.21 1.18 1.11 1.14 1.20 1.19 1.23 1.23 1.20 1.16 1.18 1.26 1.24 1.27 1.21 1.22
0.45 0.54 0.58 0.61 0.61 0.56 0.34 0.45 0.90 1.21 1.38 1.43 1.63 1.40 1.30 1.31 1.26 1.26 1.29 1.29 1.27 1.17 1.26 1.29 1.18 1.13 1.20 1.27 1.09 1.04 0.89 1.02 1.14 1.19 1.24 1.24 1.19 1.21 1.18 1.24 1.27 1.22 1.26
0.44 0.51 0.56 0.60 0.64 0.67 0.45 0.36 0.45 1.08 1.33 1.38 1.52 1.49 1.29 1.27 1.21 1.16 1.28 1.34 1.27 1.20 1.15 1.28 1.24 1.11 1.02 1.18 1.22 1.02 0.87 0.79 0.96 1.15 1.20 1.26 1.26 1.24 1.23 1.21 1.20 1.27 1.21
0.45 0.54 0.59 0.63 0.67 0.71 0.53 0.43 0.39 0.49 1.16 1.28 1.38 1.58 1.43 1.29 1.18 1.19 1.19 1.27 1.24 1.22 1.12 1.21 1.26 1.22 1.17 1.01 1.19 1.23 1.23 1.19 1.01 0.98 1.24 1.26 1.29 1.28 1.23 1.19 1.19 1.20 1.17
0.49 0.56 0.61 0.64 0.67 0.74 0.71 0.52 0.41 0.44 0.66 1.31 1.36 1.54 1.48 1.34 1.26 1.15 1.17 1.18 1.24 1.21 1.18 1.16 1.16 1.18 1.21 1.09 1.10 1.16 1.19 1.29 1.30 1.14 0.97 1.17 1.32 1.34 1.36 1.25 1.23 1.18 1.25
0.50 0.53 0.60 0.61 0.63 0.69 0.73 0.68 0.56 0.47 0.49 0.96 1.33 1.37 1.55 1.40 1.31 1.19 1.17 1.16 1.20 1.27 1.24 1.14 1.14 1.15 1.11 1.08 1.12 1.19 1.19 1.09 1.09 1.20 1.11 1.10 1.21 1.32 1.37 1.36 1.31 1.28 1.25

GFSSE_prec_pwat_141.txt.gz
Precipitable_Water
1.31 1.31 1.10 1.04 1.03 1.04 1.05 1.06 1.01 1.00 1.06 1.08 1.09 1.07 1.07 0.98 0.99 1.05 1.07 1.08 1.11 1.12 1.14 1.18 1.22 1.30 1.39 1.42 1.43 1.48 1.48 1.53 1.50 1.51 1.53 1.54 1.54 1.56 1.57 1.57 1.57 1.65 1.72
1.50 1.48 1.20 1.04 1.09 1.08 1.09 1.09 1.05 1.02 1.06 1.11 1.13 1.10 1.09 1.01 0.97 1.04 1.09 1.12 1.20 1.23 1.22 1.26 1.31 1.36 1.41 1.41 1.44 1.48 1.53 1.49 1.46 1.46 1.49 1.50 1.51 1.52 1.56 1.54 1.54 1.57 1.60
1.33 1.45 1.31 1.11 1.07 1.13 1.12 1.10 1.08 1.05 1.06 1.09 1.15 1.14 1.09 1.04 0.98 1.05 1.10 1.09 1.16 1.19 1.22 1.26 1.31 1.31 1.36 1.35 1.41 1.39 1.41 1.39 1.36 1.38 1.44 1.51 1.57 1.55 1.47 1.47 1.44 1.47 1.56
1.43 1.44 1.32 1.27 1.11 1.15 1.16 1.11 1.11 1.06 1.08 1.08 1.12 1.15 1.12 1.08 1.02 1.05 1.12 1.08 1.12 1.14 1.21 1.24 1.27 1.26 1.24 1.24 1.24 1.24 1.25 1.30 1.39 1.42 1.52 1.62 1.56 1.48 1.45 1.39 1.41 1.52 1.58
1.36 1.44 1.38 1.36 1.21 1.17 1.21 1.15 1.14 1.10 1.09 1.10 1.11 1.11 1.13 1.11 1.05 1.04 1.12 1.16 1.15 1.15 1.19 1.25 1.24 1.21 1.20 1.19 1.18 1.23 1.28 1.37 1.40 1.44 1.55 1.67 1.47 1.43 1.40 1.39 1.46 1.51 1.55
1.30 1.47 1.47 1.42 1.30 1.22 1.26 1.22 1.19 1.14 1.12 1.10 1.12 1.09 1.10 1.16 1.08 1.03 1.11 1.17 1.21 1.21 1.25 1.25 1.21 1.18 1.18 1.17 1.20 1.25 1.33 1.42 1.42 1.37 1.48 1.63 1.44 1.43 1.39 1.40 1.46 1.51 1.58
1.34 1.49 1.55 1.38 1.33 1.26 1.27 1.25 1.24 1.18 1.15 1.14 1.13 1.11 1.10 1.15 1.13 1.06 1.12 1.18 1.23 1.24 1.23 1.19 1.14 1.13 1.16 1.18 1.18 1.23 1.32 1.40 1.40 1.35 1.41 1.50 1.48 1.43 1.40 1.44 1.51 1.54 1.56
1.26 1.44 1.53 1.43 1.31 1.27 1.27 1.27 1.26 1.21 1.17 1.16 1.13 1.11 1.12 1.14 1.14 1.09 1.14 1.19 1.22 1.24 1.21 1.13 1.10 1.10 1.18 1.16 1.11 1.16 1.31 1.37 1.34 1.43 1.50 1.52 1.45 1.35 1.39 1.43 1.47 1.51 1.53
1.27 1.29 1.42 1.53 1.40 1.29 1.29 1.29 1.29 1.25 1.21 1.19 1.16 1.15 1.13 1.15 1.14 1.14 1.16 1.19 1.22 1.22 1.19 1.12 1.06 1.10 1.15 1.11 1.09 1.10 1.19 1.33 1.33 1.43 1.43 1.53 1.34 1.35 1.36 1.41 1.42 1.46 1.48
1.21 1.32 1.29 1.38 1.39 1.32 1.30 1.31 1.30 1.28 1.26 1.23 1.20 1.20 1.19 1.18 1.17 1.13 1.13 1.20 1.23 1.23 1.18 1.09 1.06 1.10 1.10 1.11 1.08 1.07 1.18 1.27 1.32 1.36 1.38 1.35 1.32 1.38 1.30 1.35 1.38 1.41 1.43
1.01 1.11 1.34 1.37 1.35 1.29 1.30 1.33 1.32 1.30 1.30 1.29 1.27 1.24 1.23 1.22 1.18 1.16 1.15 1.19 1.23 1.23 1.19 1.08 1.07 1.10 1.10 1.10 1.07 1.05 1.09 1.18 1.24 1.30 1.33 1.36 1.35 1.24 1.26 1.30 1.35 1.37 1.39
0.43 0.66 1.08 1.27 1.40 1.36 1.30 1.32 1.33 1.31 1.31 1.31 1.30 1.26 1.26 1.25 1.21 1.17 1.18 1.18 1.22 1.23 1.20 1.10 1.09 1.09 1.08 1.08 1.07 1.04 1.06 1.18 1.29 1.32 1.27 1.29 1.32 1.20 1.19 1.21 1.24 1.28 1.32
0.38 0.45 0.62 1.34 1.54 1.50 1.37 1.37 1.36 1.33 1.31 1.31 1.29 1.26 1.24 1.25 1.23 1.19 1.18 1.21 1.23 1.24 1.19 1.12 1.09 1.08 1.05 1.06 1.07 1.03 1.08 1.18 1.28 1.25 1.24 1.24 1.26 1.19 1.18 1.15 1.15 1.18 1.25
0.27 0.33 0.44 0.53 1.14 1.65 1.67 1.51 1.46 1.37 1.34 1.30 1.30 1.28 1.22 1.19 1.19 1.16 1.16 1.18 1.22 1.24 1.17 1.12 1.09 1.08 1.05 1.12 1.14 1.16 1.07 1.18 1.25 1.33 1.45 1.32 1.17 1.19 1.15 1.14 1.12 1.14 1.20
0.42 0.39 0.42 0.46 0.50 1.03 1.70 1.72 1.56 1.54 1.40 1.34 1.33 1.31 1.26 1.19 1.14 1.16 1.16 1.22 1.23 1.27 1.19 1.12 1.11 1.08 1.05 1.11 1.14 1.11 1.20 1.14 1.19 1.27 1.44 1.32 1.29 1.17 1.14 1.12 1.13 1.13 1.15
0.45 0.44 0.45 0.52 0.49 0.53 0.85 1.67 1.77 1.68 1.62 1.49 1.40 1.33 1.28 1.18 1.15 1.16 1.18 1.21 1.28 1.30 1.22 1.14 1.08 1.07 1.04 1.12 1.16 1.17 1.17 1.06 1.19 1.13 1.14 1.18 1.16 1.14 1.14 1.11 1.11 1.13 1.16
0.45 0.48 0.46 0.45 0.58 0.54 0.54 1.21 1.63 1.75 1.63 1.69 1.58 1.45 1.32 1.24 1.15 1.17 1.19 1.25 1.31 1.36 1.30 1.21 1.17 1.15 1.14 1.11 1.13 1.20 1.13 1.13 1.03 1.13 1.17 1.19 1.19 1.17 1.09 1.10 1.11 1.08 1.13
0.47 0.47 0.49 0.48 0.47 0.57 0.58 0.63 1.09 1.70 1.75 1.58 1.80 1.62 1.47 1.30 1.21 1.17 1.19 1.27 1.35 1.34 1.33 1.22 1.15 1.07 1.12 1.18 1.10 1.16 1.14 1.13 1.13 1.18 1.21 1.21 1.18 1.18 1.16 1.11 1.07 1.10 1.10
0.41 0.42 0.45 0.52 0.50 0.47 0.54 0.58 0.68 1.02 1.57 1.68 1.63 1.80 1.61 1.47 1.27 1.21 1.22 1.28 1.35 1.33 1.29 1.24 1.18 1.12 1.10 1.12 1.15 1.17 1.23 1.18 1.12 1.15 1.12 1.15 1.21 1.17 1.16 1.16 1.15 1.10 1.10
0.40 0.40 0.41 0.45 0.53 0.50 0.50 0.56 0.58 0.67 0.98 1.57 1.59 1.59 1.79 1.60 1.45 1.32 1.25 1.28 1.32 1.33 1.29 1.26 1.14 1.20 1.13 1.10 1.18 1.19 1.21 1.24 1.20 1.17 1.16 1.17 1.18 1.17 1.18 1.17 1.19 1.15 1.19
0.38 0.39 0.40 0.41 0.47 0.52 0.46 0.48 0.53 0.55 0.60 1.00 1.44 1.58 1.65 1.75 1.56 1.38 1.28 1.25 1.32 1.28 1.26 1.26 1.20 1.16 1.11 1.21 1.13 1.09 1.11 1.21 1.19 1.20 1.19 1.23 1.20 1.20 1.20 1.19 1.18 1.18 1.18
0.39 0.41 0.41 0.41 0.44 0.51 0.54 0.53 0.57 0.57 0.56 0.69 1.10 1.45 1.63 1.74 1.72 1.52 1.33 1.22 1.31 1.31 1.27 1.21 1.20 1.11 1.11 1.18 1.02 0.97 0.84 0.96 1.05 1.12 1.15 1.18 1.18 1.24 1.22 1.23 1.23 1.20 1.20
0.39 0.41 0.41 0.43 0.46 0.51 0.56 0.57 0.58 0.60 0.52 0.49 0.74 1.18 1.43 1.64 1.71 1.64 1.47 1.32 1.26 1.31 1.20 1.18 1.19 1.11 0.97 1.11 1.15 0.99 0.85 0.75 0.91 1.08 1.10 1.19 1.27 1.31 1.30 1.29 1.28 1.26 1.26
0.41 0.44 0.45 0.46 0.50 0.54 0.59 0.61 0.62 0.58 0.51 0.44 0.47 0.74 1.23 1.47 1.66 1.83 1.56 1.34 1.24 1.29 1.24 1.19 1.20 1.12 1.07 0.96 1.12 1.14 1.08 0.95 0.81 0.83 1.12 1.25 1.33 1.32 1.38 1.36 1.35 1.34 1.28
0.46 0.45 0.47 0.48 0.52 0.57 0.61 0.65 0.67 0.67 0.64 0.61 0.57 0.61 0.85 1.29 1.52 1.68 1.66 1.36 1.24 1.26 1.24 1.22 1.19 1.13 1.12 1.03 1.00 1.04 1.07 1.06 1.09 0.98 0.90 1.09 1.29 1.36 1.42 1.46 1.43 1.44 1.37
0.50 0.50 0.49 0.49 0.51 0.58 0.61 0.65 0.67 0.68 0.66 0.62 0.58 0.58 0.56 1.01 1.42 1.58 1.72 1.39 1.24 1.23 1.20 1.18 1.19 1.13 1.08 1.07 1.08 1.05 0.96 0.94 0.95 1.04 0.99 1.04 1.10 1.27 1.40 1.50 1.46 1.50 1.48

GFSSE_prec_pwat_144.txt.gz
Precipitable_Water
1.38 1.33 1.23 1.21 1.12 1.03 0.98 0.95 0.94 0.95 0.98 1.01 1.03 1.05 1.03 0.96 0.93 0.98 1.02 1.06 1.11 1.14 1.14 1.18 1.23 1.31 1.35 1.38 1.37 1.38 1.45 1.47 1.49 1.51 1.49 1.53 1.56 1.55 1.52 1.55 1.58 1.61 1.64
1.49 1.49 1.36 1.24 1.18 1.10 1.05 1.00 0.97 0.97 0.98 1.02 1.02 1.04 1.04 0.99 0.97 1.00 1.04 1.07 1.10 1.12 1.15 1.23 1.29 1.35 1.36 1.37 1.39 1.42 1.43 1.43 1.45 1.48 1.47 1.50 1.57 1.61 1.56 1.54 1.56 1.58 1.58
1.42 1.49 1.47 1.31 1.22 1.14 1.12 1.07 1.01 1.01 1.00 1.01 1.02 1.02 1.03 1.01 0.96 1.01 1.09 1.15 1.20 1.18 1.20 1.28 1.29 1.34 1.34 1.35 1.40 1.37 1.33 1.30 1.31 1.33 1.41 1.55 1.59 1.57 1.45 1.46 1.47 1.49 1.58
1.32 1.49 1.45 1.42 1.32 1.20 1.17 1.14 1.08 1.05 1.05 1.04 1.04 1.04 1.02 0.99 0.96 1.02 1.05 1.09 1.16 1.20 1.20 1.24 1.23 1.27 1.27 1.27 1.28 1.26 1.24 1.29 1.35 1.36 1.50 1.62 1.52 1.44 1.41 1.37 1.40 1.51 1.58
1.26 1.36 1.49 1.47 1.42 1.30 1.22 1.19 1.14 1.09 1.08 1.06 1.06 1.03 1.04 1.00 0.96 1.01 1.01 1.06 1.11 1.15 1.18 1.20 1.19 1.19 1.19 1.18 1.23 1.25 1.27 1.34 1.35 1.37 1.48 1.62 1.50 1.40 1.36 1.37 1.44 1.49 1.53
1.27 1.35 1.44 1.50 1.45 1.38 1.27 1.21 1.20 1.14 1.11 1.09 1.08 1.04 1.02 1.03 0.98 0.99 1.03 1.07 1.09 1.15 1.21 1.22 1.14 1.15 1.15 1.16 1.24 1.26 1.28 1.32 1.33 1.32 1.46 1.56 1.40 1.42 1.38 1.37 1.43 1.48 1.55
1.23 1.32 1.44 1.51 1.44 1.41 1.29 1.26 1.26 1.20 1.15 1.13 1.13 1.09 1.06 1.05 1.02 0.98 1.04 1.10 1.11 1.16 1.21 1.18 1.11 1.10 1.13 1.15 1.21 1.24 1.29 1.29 1.31 1.32 1.43 1.40 1.48 1.41 1.35 1.37 1.39 1.46 1.52
1.16 1.26 1.37 1.48 1.43 1.41 1.33 1.32 1.32 1.28 1.22 1.17 1.17 1.14 1.11 1.10 1.06 1.00 1.03 1.09 1.14 1.17 1.16 1.11 1.09 1.07 1.13 1.15 1.15 1.21 1.25 1.24 1.21 1.26 1.41 1.37 1.41 1.36 1.36 1.37 1.40 1.43 1.49
1.17 1.19 1.36 1.45 1.48 1.42 1.34 1.34 1.35 1.33 1.28 1.24 1.22 1.19 1.16 1.15 1.11 1.05 1.04 1.09 1.14 1.17 1.15 1.09 1.06 1.07 1.12 1.12 1.11 1.18 1.22 1.20 1.16 1.22 1.31 1.36 1.30 1.32 1.35 1.36 1.35 1.38 1.39
1.07 0.98 1.10 1.31 1.45 1.45 1.42 1.36 1.38 1.37 1.32 1.29 1.26 1.25 1.22 1.20 1.17 1.11 1.08 1.10 1.13 1.15 1.14 1.09 1.05 1.08 1.10 1.09 1.10 1.13 1.20 1.19 1.18 1.23 1.27 1.31 1.28 1.32 1.30 1.32 1.30 1.31 1.35
0.80 0.97 1.02 1.15 1.35 1.50 1.50 1.43 1.38 1.40 1.38 1.33 1.30 1.29 1.27 1.25 1.22 1.18 1.13 1.11 1.15 1.15 1.13 1.09 1.05 1.08 1.09 1.08 1.07 1.10 1.19 1.19 1.18 1.19 1.29 1.32 1.30 1.24 1.23 1.26 1.27 1.28 1.29
0.42 0.58 0.90 0.95 1.22 1.52 1.61 1.52 1.42 1.40 1.41 1.38 1.33 1.31 1.29 1.26 1.24 1.22 1.17 1.15 1.16 1.18 1.16 1.10 1.05 1.08 1.08 1.06 1.05 1.07 1.12 1.18 1.22 1.31 1.28 1.26 1.27 1.24 1.18 1.18 1.23 1.22 1.21
0.45 0.49 0.57 0.74 1.02 1.12 1.36 1.64 1.58 1.51 1.45 1.43 1.38 1.35 1.34 1.29 1.27 1.25 1.22 1.21 1.18 1.19 1.16 1.12 1.06 1.07 1.06 1.04 1.02 1.02 1.08 1.15 1.24 1.27 1.21 1.23 1.23 1.28 1.23 1.16 1.15 1.17 1.18
0.43 0.45 0.52 0.60 0.62 0.67 1.23 1.48 1.68 1.66 1.57 1.45 1.45 1.39 1.31 1.30 1.26 1.22 1.19 1.18 1.17 1.18 1.14 1.13 1.07 1.06 1.07 1.06 1.05 1.01 1.06 1.14 1.21 1.25 1.31 1.35 1.30 1.24 1.28 1.18 1.16 1.14 1.15
0.39 0.43 0.44 0.50 0.57 0.61 0.65 1.10 1.50 1.55 1.70 1.63 1.51 1.47 1.40 1.26 1.24 1.24 1.19 1.18 1.17 1.18 1.16 1.13 1.09 1.06 1.06 1.07 1.17 1.14 1.08 1.15 1.19 1.18 1.28 1.40 1.27 1.22 1.20 1.21 1.17 1.15 1.14
0.41 0.40 0.42 0.42 0.47 0.54 0.58 0.62 0.73 1.46 1.61 1.81 1.74 1.64 1.49 1.40 1.28 1.24 1.21 1.16 1.16 1.19 1.20 1.18 1.09 1.05 1.04 1.05 1.11 1.13 1.16 1.18 1.15 1.13 1.19 1.28 1.20 1.15 1.13 1.13 1.17 1.24 1.24
0.40 0.41 0.41 0.42 0.44 0.46 0.50 0.55 0.59 0.85 1.47 1.68 1.83 1.67 1.70 1.54 1.38 1.30 1.23 1.18 1.17 1.20 1.21 1.21 1.16 1.10 1.06 1.06 1.07 1.13 1.10 1.18 1.09 1.19 1.15 1.07 1.18 1.10 1.11 1.07 1.10 1.10 1.13
0.42 0.41 0.42 0.42 0.41 0.42 0.44 0.49 0.54 0.58 0.79 1.36 1.59 1.73 1.75 1.80 1.61 1.40 1.28 1.24 1.22 1.21 1.24 1.22 1.16 1.07 1.03 1.03 1.03 1.07 1.13 1.11 1.12 1.12 1.13 1.19 1.20 1.16 1.17 1.13 1.05 1.09 1.10
0.42 0.42 0.40 0.41 0.39 0.39 0.41 0.45 0.49 0.54 0.60 0.73 1.32 1.58 1.79 1.66 1.76 1.64 1.38 1.30 1.29 1.23 1.24 1.26 1.20 1.10 1.04 1.04 1.01 1.06 1.15 1.10 1.10 1.11 1.16 1.16 1.17 1.19 1.17 1.21 1.15 1.12 1.09
0.42 0.41 0.40 0.39 0.38 0.39 0.41 0.44 0.47 0.49 0.51 0.62 0.78 1.12 1.50 1.65 1.73 1.81 1.60 1.31 1.31 1.27 1.25 1.29 1.22 1.19 1.09 0.99 1.05 1.09 1.06 1.17 1.17 1.11 1.08 1.13 1.13 1.14 1.17 1.16 1.17 1.19 1.19
0.41 0.40 0.39 0.37 0.37 0.37 0.38 0.39 0.41 0.43 0.47 0.50 0.61 0.80 1.12 1.47 1.64 1.74 1.77 1.51 1.29 1.26 1.24 1.28 1.27 1.16 1.08 1.05 1.02 1.00 1.11 1.15 1.15 1.14 1.11 1.11 1.10 1.13 1.15 1.18 1.17 1.19 1.22
0.37 0.38 0.38 0.38 0.39 0.39 0.41 0.42 0.44 0.47 0.52 0.55 0.58 0.62 0.85 1.08 1.45 1.52 1.72 1.72 1.47 1.25 1.29 1.26 1.26 1.17 1.14 1.12 0.96 0.93 0.82 0.97 1.00 1.09 1.13 1.07 1.08 1.14 1.15 1.19 1.20 1.21 1.25
0.38 0.39 0.41 0.42 0.43 0.43 0.45 0.47 0.48 0.49 0.51 0.54 0.59 0.58 0.68 0.87 1.10 1.39 1.50 1.67 1.54 1.43 1.27 1.26 1.23 1.22 1.03 1.11 1.07 0.95 0.76 0.67 0.84 1.01 1.05 1.08 1.11 1.17 1.24 1.29 1.29 1.29 1.27
0.40 0.43 0.44 0.46 0.46 0.46 0.48 0.48 0.48 0.46 0.44 0.51 0.57 0.63 0.60 0.63 0.74 0.94 1.36 1.58 1.86 1.60 1.35 1.31 1.25 1.22 1.20 1.01 1.11 1.11 1.03 0.90 0.72 0.69 0.97 1.07 1.18 1.19 1.24 1.34 1.40 1.44 1.41
0.43 0.44 0.45 0.48 0.49 0.50 0.50 0.50 0.51 0.50 0.54 0.56 0.58 0.62 0.63 0.62 0.67 0.76 0.92 1.30 1.42 1.49 1.60 1.35 1.26 1.26 1.24 1.13 1.03 1.00 1.00 0.95 0.93 0.80 0.70 0.88 1.12 1.20 1.29 1.36 1.41 1.46 1.50
0.46 0.45 0.48 0.49 0.51 0.54 0.52 0.53 0.53 0.54 0.54 0.56 0.58 0.60 0.67 0.67 0.66 0.65 0.74 1.06 1.39 1.46 1.75 1.52 1.36 1.31 1.24 1.22 1.14 1.07 0.95 0.87 0.82 0.83 0.79 0.87 0.95 1.14 1.28 1.34 1.37 1.43 1.47

GFSSE_prec_pwat_147.txt.gz
Precipitable_Water
1.38 1.26 1.25 1.27 1.22 1.15 1.07 0.97 0.94 0.94 0.96 0.97 0.97 0.97 0.96 1.00 1.06 1.10 1.10 1.12 1.11 1.12 1.13 1.15 1.18 1.21 1.24 1.28 1.31 1.35 1.40 1.43 1.41 1.48 1.48 1.53 1.54 1.49 1.46 1.52 1.54 1.55 1.56
1.42 1.42 1.39 1.31 1.21 1.17 1.14 1.04 1.00 1.00 1.01 1.01 0.99 0.98 0.94 0.90 0.93 0.96 0.99 1.03 1.04 1.08 1.13 1.17 1.21 1.24 1.27 1.27 1.29 1.35 1.39 1.39 1.40 1.42 1.47 1.58 1.61 1.55 1.48 1.46 1.48 1.50 1.54
1.31 1.45 1.47 1.42 1.26 1.18 1.17 1.11 1.06 1.06 1.05 1.05 1.02 1.00 0.95 0.92 0.93 0.97 0.99 1.01 1.04 1.09 1.16 1.23 1.25 1.25 1.27 1.26 1.30 1.33 1.33 1.35 1.34 1.33 1.39 1.52 1.61 1.53 1.40 1.42 1.41 1.41 1.49
1.33 1.41 1.47 1.49 1.40 1.33 1.22 1.16 1.13 1.11 1.10 1.09 1.07 1.06 1.00 0.97 0.98 1.02 1.06 1.10 1.09 1.14 1.19 1.22 1.24 1.24 1.22 1.21 1.22 1.18 1.19 1.22 1.26 1.29 1.41 1.53 1.54 1.45 1.42 1.36 1.36 1.43 1.51
1.28 1.38 1.44 1.48 1.52 1.46 1.34 1.19 1.19 1.16 1.15 1.13 1.12 1.11 1.05 1.00 0.98 1.03 1.04 1.07 1.10 1.13 1.16 1.17 1.19 1.18 1.15 1.12 1.12 1.14 1.19 1.26 1.30 1.31 1.39 1.49 1.47 1.42 1.37 1.36 1.39 1.46 1.48
1.23 1.35 1.44 1.46 1.49 1.55 1.45 1.29 1.26 1.23 1.20 1.19 1.17 1.13 1.11 1.06 1.01 1.02 1.03 1.05 1.07 1.10 1.13 1.14 1.14 1.14 1.12 1.10 1.12 1.15 1.19 1.25 1.27 1.28 1.44 1.44 1.38 1.40 1.37 1.35 1.40 1.42 1.47
1.20 1.29 1.37 1.45 1.55 1.58 1.54 1.41 1.32 1.31 1.25 1.24 1.22 1.17 1.15 1.13 1.07 1.01 1.04 1.07 1.07 1.10 1.15 1.14 1.11 1.11 1.09 1.11 1.13 1.16 1.21 1.19 1.24 1.30 1.37 1.35 1.41 1.36 1.37 1.35 1.37 1.43 1.43
1.07 1.25 1.36 1.46 1.56 1.55 1.56 1.49 1.40 1.38 1.33 1.29 1.27 1.22 1.18 1.19 1.12 1.04 1.03 1.07 1.10 1.12 1.13 1.10 1.09 1.08 1.09 1.10 1.12 1.16 1.21 1.22 1.18 1.19 1.35 1.34 1.36 1.33 1.35 1.35 1.36 1.40 1.41
1.24 1.21 1.26 1.38 1.49 1.56 1.55 1.50 1.40 1.40 1.38 1.33 1.30 1.28 1.23 1.22 1.19 1.12 1.04 1.05 1.10 1.13 1.11 1.08 1.07 1.06 1.10 1.09 1.08 1.12 1.20 1.19 1.15 1.18 1.32 1.33 1.34 1.30 1.36 1.35 1.34 1.37 1.35
0.92 0.95 1.09 1.30 1.40 1.57 1.65 1.61 1.51 1.40 1.40 1.40 1.36 1.34 1.30 1.27 1.24 1.19 1.13 1.08 1.10 1.12 1.11 1.07 1.06 1.05 1.10 1.09 1.05 1.10 1.16 1.16 1.14 1.22 1.27 1.35 1.30 1.34 1.32 1.31 1.30 1.31 1.32
0.59 0.65 0.76 0.94 1.05 1.35 1.61 1.70 1.63 1.56 1.52 1.48 1.43 1.39 1.35 1.30 1.27 1.24 1.19 1.14 1.11 1.13 1.13 1.10 1.07 1.07 1.09 1.08 1.06 1.07 1.11 1.13 1.12 1.16 1.23 1.27 1.27 1.28 1.26 1.26 1.26 1.24 1.27
0.47 0.51 0.58 0.65 0.72 0.89 1.26 1.58 1.67 1.65 1.60 1.57 1.55 1.49 1.42 1.35 1.31 1.28 1.23 1.18 1.16 1.16 1.16 1.13 1.08 1.08 1.10 1.06 1.05 1.05 1.08 1.11 1.11 1.13 1.23 1.24 1.26 1.27 1.23 1.23 1.22 1.20 1.19
0.47 0.49 0.49 0.51 0.54 0.60 0.71 1.10 1.59 1.66 1.61 1.59 1.61 1.61 1.52 1.42 1.35 1.32 1.32 1.27 1.22 1.20 1.17 1.16 1.10 1.07 1.06 1.05 1.02 1.02 1.07 1.11 1.11 1.17 1.24 1.20 1.21 1.29 1.27 1.22 1.17 1.16 1.13
0.42 0.43 0.46 0.49 0.48 0.51 0.58 0.63 0.97 1.37 1.62 1.61 1.59 1.63 1.61 1.52 1.40 1.33 1.28 1.28 1.23 1.20 1.14 1.15 1.11 1.07 1.06 1.05 1.01 0.99 1.03 1.10 1.14 1.19 1.21 1.20 1.17 1.20 1.28 1.26 1.20 1.14 1.10
0.39 0.40 0.42 0.43 0.44 0.47 0.48 0.53 0.57 0.72 1.12 1.49 1.71 1.67 1.63 1.61 1.53 1.45 1.35 1.31 1.26 1.21 1.14 1.13 1.13 1.08 1.06 1.05 1.04 0.99 0.98 1.06 1.12 1.19 1.18 1.25 1.27 1.22 1.18 1.22 1.24 1.25 1.13
0.39 0.39 0.41 0.41 0.42 0.43 0.42 0.45 0.49 0.53 0.60 0.82 1.38 1.72 1.73 1.70 1.66 1.58 1.48 1.33 1.28 1.25 1.18 1.13 1.13 1.11 1.06 1.06 1.03 1.05 0.99 1.04 1.11 1.12 1.14 1.21 1.27 1.22 1.14 1.14 1.15 1.21 1.24
0.40 0.41 0.41 0.42 0.43 0.42 0.40 0.41 0.42 0.46 0.51 0.54 0.70 1.20 1.73 1.76 1.79 1.77 1.61 1.50 1.32 1.28 1.24 1.17 1.15 1.20 1.13 1.11 1.06 1.12 1.12 1.08 1.06 1.10 1.08 1.12 1.21 1.15 1.10 1.09 1.07 1.08 1.11
0.42 0.42 0.44 0.44 0.43 0.42 0.42 0.41 0.41 0.44 0.45 0.50 0.55 0.65 1.08 1.69 1.78 1.72 1.69 1.66 1.52 1.34 1.30 1.20 1.15 1.15 1.13 1.09 1.04 1.06 1.12 1.12 1.12 1.01 1.10 1.14 1.11 1.12 1.08 1.06 1.05 1.06 1.07
0.43 0.42 0.42 0.42 0.40 0.40 0.40 0.41 0.40 0.40 0.41 0.44 0.51 0.55 0.59 0.99 1.62 1.65 1.68 1.70 1.73 1.50 1.33 1.25 1.17 1.18 1.13 1.09 1.05 1.04 1.11 1.11 1.05 1.11 1.08 1.06 1.14 1.13 1.12 1.15 1.10 1.08 1.08
0.43 0.42 0.41 0.39 0.38 0.38 0.38 0.38 0.40 0.40 0.40 0.43 0.46 0.52 0.56 0.62 0.93 1.54 1.60 1.75 1.70 1.60 1.50 1.30 1.23 1.22 1.20 1.12 1.06 1.02 1.07 1.13 1.16 1.07 1.06 1.08 1.10 1.11 1.16 1.14 1.17 1.18 1.15
0.42 0.41 0.40 0.38 0.39 0.38 0.37 0.35 0.35 0.35 0.38 0.41 0.45 0.49 0.56 0.62 0.66 1.04 1.52 1.51 1.62 1.56 1.68 1.48 1.29 1.23 1.24 1.24 1.10 1.08 1.06 1.12 1.18 1.12 1.12 1.07 1.07 1.08 1.13 1.12 1.11 1.14 1.18
0.42 0.42 0.40 0.39 0.40 0.40 0.40 0.41 0.42 0.41 0.43 0.45 0.48 0.52 0.55 0.59 0.62 0.72 1.08 1.42 1.48 1.62 1.46 1.53 1.46 1.22 1.27 1.35 1.07 1.04 0.87 0.96 1.11 1.17 1.14 1.08 1.05 1.10 1.11 1.12 1.15 1.14 1.17
0.42 0.41 0.41 0.40 0.41 0.42 0.43 0.43 0.43 0.45 0.45 0.45 0.46 0.48 0.53 0.59 0.63 0.64 0.69 1.05 1.39 1.64 1.65 1.42 1.58 1.28 1.20 1.34 1.25 1.03 0.85 0.76 0.92 1.07 1.07 1.08 1.08 1.07 1.12 1.15 1.19 1.23 1.25
0.43 0.43 0.43 0.43 0.42 0.43 0.44 0.43 0.43 0.41 0.40 0.45 0.49 0.52 0.54 0.58 0.62 0.65 0.64 0.71 0.97 1.21 1.50 1.53 1.50 1.38 1.35 1.28 1.32 1.23 1.12 0.93 0.80 0.79 0.96 0.98 1.11 1.08 1.11 1.18 1.21 1.27 1.34
0.43 0.43 0.44 0.44 0.44 0.46 0.46 0.46 0.46 0.44 0.48 0.51 0.51 0.52 0.53 0.58 0.62 0.63 0.68 0.71 0.80 0.89 1.16 1.53 1.57 1.39 1.36 1.34 1.27 1.20 1.15 1.04 0.97 0.82 0.70 0.83 1.00 1.08 1.17 1.20 1.23 1.30 1.37
0.42 0.41 0.44 0.45 0.45 0.47 0.47 0.48 0.48 0.48 0.49 0.50 0.51 0.51 0.54 0.57 0.61 0.64 0.69 0.73 0.77 0.80 0.79 1.05 1.27 1.35 1.56 1.52 1.35 1.32 1.16 1.01 0.89 0.86 0.80 0.81 0.84 0.99 1.11 1.23 1.25 1.29 1.38